Weather History for Marathon, FL

Change the Weather History Date:

Thursday, January 17, 2013

  Actual Average Record
Temperature  
Mean Temperature 74 °F 69 °F  
Max Temperature 79 °F 75 °F 83 °F (2008)
Min Temperature 68 °F 64 °F 52 °F (2014)
Degree Days  
Heating Degree Days 0 1  
Month to date heating degree days 0 26  
Since 1 July heating degree days 6 47  
Cooling Degree Days 9 6  
Month to date cooling degree days 214 102  
Year to date cooling degree days 214 102  
Growing Degree Days 24 (Base 50)    
Moisture  
Dew Point 65 °F    
Average Humidity 74    
Maximum Humidity 84    
Minimum Humidity 64    
Precipitation  
Precipitation 0.42 in 0.03 in 1.35 in (2011)
Month to date precipitation 0.54 0.87  
Year to date precipitation 0.54 0.87  
Snow  
Snow 0.00 in - - ()
Month to date snowfall 0.0  
Since 1 July snowfall 0.0  
Snow Depth 0.00 in    
Sea Level Pressure  
Sea Level Pressure 30.07 in    
Wind  
Wind Speed 8 mph (West)    
Max Wind Speed 21 mph    
Max Gust Speed 32 mph    
Visibility 8 miles    
Events Rain    
T = Trace of Precipitation, MM = Missing Value Source: NWS Daily Summary

Daily Weather History Graph

Daily Weather History Graph

Search for Another Location

Airport:

Trip Planner

Search our weather history database for the weather conditions in past years. The results will help you decide how hot, cold, wet, or windy it might be!

Date:

Astronomy

Jan. 17, 2013 Rise Set
Actual Time 7:10 AM EST 5:58 PM EST
Civil Twilight 6:45 AM EST 6:23 PM EST
Nautical Twilight 6:18 AM EST 6:51 PM EST
Astronomical Twilight 5:50 AM EST 7:18 PM EST
Moon 11:02 AM EST (1/17) 11:59 PM EST (1/17)
Length of Visible Light 11h 37m
Length of Day
10h 48m
Waxing Crescent, 37% of the Moon is Illuminated
Jan 17
Waxing Crescent
Jan 18
First Quarter
Jan 26
Full
Feb 3
Last Quarter
Feb 10
New

Hourly Weather History & Observations

Time (EST) Temp. Dew Point Humidity Pressure Visibility Wind Dir Wind Speed Gust Speed Precip Events Conditions
12:53 AM 75.9 °F 66.9 °F 74% 30.03 in 10.0 mi SE 6.9 mph - N/A   Clear
1:53 AM 75.9 °F 66.9 °F 74% 30.03 in 10.0 mi SE 4.6 mph - N/A   Mostly Cloudy
2:53 AM 75.9 °F 66.9 °F 74% 30.03 in 10.0 mi SSE 5.8 mph - N/A   Mostly Cloudy
3:53 AM 75.9 °F 66.9 °F 74% 30.02 in 10.0 mi SE 5.8 mph - N/A   Overcast
4:53 AM 75.9 °F 66.9 °F 74% 30.02 in 10.0 mi SE 5.8 mph - N/A   Overcast
5:53 AM 75.9 °F 66.9 °F 74% 30.03 in 10.0 mi SE 6.9 mph - N/A   Overcast
6:53 AM 77.0 °F 68.0 °F 74% 30.04 in 10.0 mi SSE 9.2 mph - 0.00 in Rain Light Rain
7:12 AM 73.4 °F 66.2 °F 78% 30.06 in 2.5 mi Calm Calm - 0.03 in Rain Rain
7:22 AM 71.6 °F 66.2 °F 83% 30.06 in 1.8 mi Variable 3.5 mph - 0.09 in Rain Light Rain
7:26 AM 71.6 °F 66.2 °F 83% 30.06 in 3.0 mi NW 5.8 mph - 0.09 in Rain Light Rain
7:34 AM 71.6 °F 66.2 °F 83% 30.06 in 1.5 mi WNW 4.6 mph - 0.19 in Rain Light Rain
7:47 AM 71.6 °F 66.2 °F 83% 30.07 in 3.0 mi WNW 5.8 mph - 0.21 in Rain Light Rain
7:53 AM 71.1 °F 66.9 °F 87% 30.07 in 6.0 mi WNW 8.1 mph - 0.21 in Rain Light Rain
8:14 AM 69.8 °F 66.2 °F 88% 30.08 in 2.5 mi West 9.2 mph - 0.02 in Rain Light Rain
8:23 AM 71.6 °F 66.2 °F 83% 30.08 in 4.0 mi WNW 6.9 mph - 0.02 in Rain Light Rain
8:53 AM 71.1 °F 66.9 °F 87% 30.09 in 7.0 mi WNW 4.6 mph - 0.03 in Rain Light Rain
9:38 AM 71.6 °F 68.0 °F 88% 30.11 in 2.0 mi SW 5.8 mph - 0.02 in Rain Light Rain
9:53 AM 70.0 °F 66.0 °F 87% 30.11 in 1.5 mi West 3.5 mph - 0.06 in Rain Heavy Rain
10:03 AM 71.6 °F 66.2 °F 83% 30.11 in 3.0 mi West 4.6 mph - 0.02 in Rain Light Rain
10:07 AM 69.8 °F 66.2 °F 88% 30.12 in 1.8 mi West 8.1 mph - 0.04 in Rain Rain
10:34 AM 68.0 °F 64.4 °F 88% 30.12 in 2.0 mi West 4.6 mph - 0.11 in Rain Light Rain
10:53 AM 69.1 °F 64.0 °F 84% 30.09 in 8.0 mi North 6.9 mph - 0.12 in   Overcast
11:53 AM 75.0 °F 66.0 °F 73% 30.08 in 10.0 mi Calm Calm - N/A   Overcast
12:53 PM 77.0 °F 64.9 °F 66% 30.04 in 10.0 mi SSE 3.5 mph - N/A   Overcast
1:53 PM 78.1 °F 66.0 °F 66% 30.03 in 10.0 mi Variable 3.5 mph - N/A   Mostly Cloudy
2:53 PM 79.0 °F 66.0 °F 64% 30.01 in 10.0 mi SSW 3.5 mph - N/A   Clear
3:53 PM 78.1 °F 66.9 °F 68% 30.02 in 10.0 mi SSW 3.5 mph - N/A   Clear
4:53 PM 78.1 °F 66.9 °F 68% 30.03 in 10.0 mi SSW 5.8 mph - N/A   Partly Cloudy
5:23 PM 77.0 °F 66.2 °F 69% 30.03 in 10.0 mi West 4.6 mph - N/A   Mostly Cloudy
5:32 PM 77.0 °F 66.2 °F 69% 30.03 in 10.0 mi West 3.5 mph - N/A   Scattered Clouds
5:53 PM 75.9 °F 68.0 °F 76% 30.04 in 10.0 mi WNW 5.8 mph - N/A   Clear
6:33 PM 73.4 °F 66.2 °F 78% 30.06 in 10.0 mi NNW 16.1 mph 26.5 mph N/A   Overcast
6:53 PM 72.0 °F 64.9 °F 78% 30.07 in 10.0 mi NW 12.7 mph 27.6 mph N/A   Overcast
7:37 PM 69.8 °F 62.6 °F 78% 30.09 in 9.0 mi NNW 18.4 mph 31.1 mph N/A   Overcast
7:53 PM 69.1 °F 63.0 °F 81% 30.10 in 10.0 mi NNW 18.4 mph 29.9 mph N/A   Overcast
8:18 PM 69.8 °F 60.8 °F 73% 30.11 in 10.0 mi NNW 18.4 mph 29.9 mph N/A   Overcast
8:53 PM 70.0 °F 61.0 °F 73% 30.11 in 10.0 mi NW 13.8 mph 28.8 mph N/A   Overcast
9:53 PM 69.1 °F 59.0 °F 70% 30.12 in 10.0 mi NNW 13.8 mph 25.3 mph N/A   Overcast
10:53 PM 69.1 °F 59.0 °F 70% 30.12 in 10.0 mi NW 13.8 mph 23.0 mph N/A   Overcast
11:26 PM 69.8 °F 57.2 °F 64% 30.12 in 10.0 mi NW 13.8 mph 21.9 mph N/A   Mostly Cloudy
11:53 PM 69.1 °F 57.9 °F 68% 30.13 in 10.0 mi NNW 13.8 mph 25.3 mph N/A   Overcast